Terug naar catalogus

STARLINK-38061

ActiefCommunicatieSSO
NORAD 69715·PAYLOAD·🇺🇸 United States

Gelanceerd Jun 28, 2026 vanaf Vandenberg Space Force Base

Loading…

Volgende Passages (komende 24 uur)

TLE

VersSource: CelesTrak SupGP

Epoch: Sep 15, 2026, 04:15 UTC

1 69715C 26147M   26258.17756944 -.00046708  00000+0 -14500-2 0  2580
2 69715  97.2834 294.6098 0001301  86.8635  64.5726 15.33460956    15

Volg STARLINK-38061 in realtime met AllMySat

Download on the App Store